Showing default

METEOR 1-16, 7209

Orbit data source: Space-Track

METEOR 1-16, 7209 is a Commonwealth of Independent States-origin payload satellite in LEO that was launched on Tue, 05 Mar 1974 UTC via a VOSTOK 8A92M launch vehicle from the Plesetsk Missile And Space Complex (PKMTR). Payload-class satellites include a variety of spacecraft equipped with specific instruments for various scientific and technological missions. These include communications satellites like Starlink; space stations such as the ISS; scientific satellites like the Hubble; Earth observation satellites from companies like Planet Labs, Umbra, and HawkEye 360; GPS; miniature CubeSats for education and research; and military/defense satellites.

Loading next visibility...
Identifier
7209, 1974-011A
Orbit
LEO
Country
Flag of CISCIS
Related business
Manufacturer
VNIIEM
Mission
Spacecraft
Bus & Motor
METEOR, Unknown motor
Mass
1,280 kg wet, 1,280 kg dry
Launch date (UTC)
1974-03-05 (52 years ago)
Launch vehicle
VOSTOK 8A92M
Launch site
Plesetsk Missile And Space Complex (PKMTR)
Object type
Payload
Rocket body
Debris
Shape & HBR
Unknown
Radar Cross Section
Large (>1 m²)

Expand to show TLE details & history
Last TLE update: 2 days ago

TLE from 2 days ago
0 METEOR 1-16
1  7209U 74011A   26171.32953728  .00000088  00000-0  38961-4 0  9994
2  7209  81.2269  26.5853 0039328  34.3302 326.0400 14.14550742695689
Epoch: 2026-06-20T07:54Z
TLE epoch observation values (Epoch: 2026-06-20T07:54:32.020Z)
Latitude
-0.00012°
Longitude
-0.59385°
Altitude
823.218 km
Speed
7.454 km/s
True Right ascension
01h 46m 20s
True Declination
0° 00' 00"
Sunlit
Object was in daylight at epoch
Visualization orbit readout
Latitude
Unknown
Longitude
Unknown
Altitude
Unknown
Speed
Unknown
Apparent Right ascension
Unknown
Apparent Declination
Unknown
Sunlit
N/A
Visualization observer readout
Local Sidereal Time
23:07:55
Azimuth
Unknown
Elevation
Unknown
Doppler factor
Unknown
Orbital elements
Apogee altitude
869.401 km
Perigee altitude
812.618 km
Semi-major axis
7,219.147 km
Eccentricity
0.00393
Inclination
81.2269°
RAAN
26.5853°
Arg. of periapsis
34.3302°
True anomaly
325.78722°
Mean anomaly
326.04°
Eccentric anomaly
325.91371°
Mean motion
3.53846 °/min
Orbital period
101.74 mins
BSTAR
0.000038961
Loading maneuver chart data...
Computing Atmospheric mass density...
Loading historical data...
Loading historical data...
Loading historical data...
Loading historical data...
Loading historical data...
Loading historical data...
Loading historical data...
Other satellites on launch #11 in the year 1974 (1974-03-05 UTC)

Documentation

Showing up to 5 results
|